STARLINK-36098

Last updated on Mon Dec 15 2025 00:02:12 GMT+0000 (Coordinated Universal Time)

1 66816U 25278AB 25348.25003472 -.01362664 00000+0 -71643-2 0 9998 2 66816 42.9974 242.7043 0001758 274.7691 151.7123 15.82700939 3044
UTC large
Height (km)
Speed (km/s)
/
Latitude / Longitude
Inclination (degrees)
Orbital Period (minutes)
Azimuth
Elevation
Range (km)
Doppler Factor

Next 0 passes for location: London (51.5072 / 0.1276)

Sorry there are no passes over London.